Time,TemperatureF,DewpointF,PressureIn,WindDirection,WindDirectionDegrees,WindSpeedMPH,WindSpeedGustMPH,Humidity,HourlyPrecipIn,Conditions,Clouds,dailyrainin,SolarRadiationWatts/m^2,SoftwareType,DateUTC
2013-04-11 00:22:00,11.0,7.0,-100.00,NE,36,0.0,2.0,85,0.00,,,0.06,0.000000,,2013-04-11 08:22:00,
2013-04-11 00:32:00,11.0,7.0,-100.00,NE,36,0.0,2.0,85,0.00,,,0.06,0.000000,,2013-04-11 08:32:00,
2013-04-11 00:42:00,11.0,7.0,-100.00,NE,36,0.0,2.0,85,0.00,,,0.06,0.000000,,2013-04-11 08:42:00,
2013-04-11 00:51:00,11.0,7.0,-100.00,NE,36,0.0,2.0,85,0.00,,,0.06,0.000000,,2013-04-11 08:51:00,
2013-04-11 01:12:00,10.0,6.0,-100.00,ENE,62,0.0,3.0,84,-99.99,,,-99.99,,,2013-04-11 09:12:00,
2013-04-11 01:22:00,10.0,6.0,-100.00,ENE,62,0.0,3.0,84,0.00,,,0.06,0.000000,,2013-04-11 09:22:00,
2013-04-11 01:33:00,10.0,6.0,-100.00,ENE,62,0.0,3.0,84,0.00,,,0.06,0.000000,,2013-04-11 09:33:00,
2013-04-11 01:42:00,10.0,6.0,-100.00,ENE,62,0.0,3.0,84,0.00,,,0.06,0.000000,,2013-04-11 09:42:00,
2013-04-11 01:52:00,10.0,6.0,-100.00,ENE,62,0.0,3.0,84,0.00,,,0.06,0.000000,,2013-04-11 09:52:00,
2013-04-11 02:23:00,6.0,2.0,-100.00,East,80,1.0,4.0,82,0.00,,,0.06,0.000000,,2013-04-11 10:23:00,
2013-04-11 02:32:00,6.0,2.0,-100.00,East,80,1.0,4.0,82,0.00,,,0.06,0.000000,,2013-04-11 10:32:00,
2013-04-11 02:42:00,6.0,2.0,-100.00,East,80,1.0,4.0,82,0.00,,,0.06,0.000000,,2013-04-11 10:42:00,
2013-04-11 02:52:00,6.0,2.0,-100.00,East,80,1.0,4.0,82,0.00,,,0.06,0.000000,,2013-04-11 10:52:00,
2013-04-11 03:22:00,2.0,-3.0,-100.00,ESE,106,1.0,2.0,80,0.00,,,-99.99,0.000000,,2013-04-11 11:22:00,
2013-04-11 03:32:00,2.0,-3.0,-100.00,ESE,106,1.0,2.0,80,0.00,,,-99.99,0.000000,,2013-04-11 11:32:00,
2013-04-11 04:12:00,-2.0,-7.0,-100.00,East,96,1.0,2.0,77,-99.99,,,-99.99,,,2013-04-11 12:12:00,
2013-04-11 04:22:00,-2.0,-7.0,-100.00,East,96,1.0,2.0,77,-99.99,,,-99.99,0.000000,,2013-04-11 12:22:00,
2013-04-11 04:32:00,-2.0,-7.0,-100.00,East,96,1.0,2.0,77,-99.99,,,-99.99,0.000000,,2013-04-11 12:32:00,
2013-04-11 06:22:00,-4.0,-10.0,-100.00,East,89,1.0,3.0,76,-99.99,,,0.06,0.000000,,2013-04-11 14:22:00,
2013-04-11 06:32:00,-4.0,-10.0,-100.00,East,89,1.0,3.0,76,-99.99,,,0.06,0.000000,,2013-04-11 14:32:00,
2013-04-11 07:12:00,-6.0,-12.0,-100.00,East,82,1.0,2.0,75,-99.99,,,-99.99,,,2013-04-11 15:12:00,
2013-04-11 10:22:00,18.0,8.0,-100.00,WNW,285,4.0,5.0,64,-99.99,,,0.06,62.000000,,2013-04-11 18:22:00,
2013-04-11 10:32:00,18.0,8.0,-100.00,WNW,285,4.0,5.0,64,-99.99,,,0.06,62.000000,,2013-04-11 18:32:00,
2013-04-11 10:42:00,18.0,8.0,-100.00,WNW,285,4.0,5.0,64,-99.99,,,0.06,62.000000,,2013-04-11 18:42:00,
2013-04-11 10:52:00,18.0,8.0,-100.00,WNW,285,4.0,5.0,64,-99.99,,,0.06,62.000000,,2013-04-11 18:52:00,
2013-04-11 11:22:00,22.0,5.0,-100.00,NW,314,4.0,8.0,47,0.01,,,0.07,110.000000,,2013-04-11 19:22:00,
2013-04-11 11:32:00,22.0,5.0,-100.00,NW,314,4.0,8.0,47,0.01,,,0.07,110.000000,,2013-04-11 19:32:00,
2013-04-11 11:42:00,22.0,5.0,-100.00,NW,314,4.0,8.0,47,0.01,,,0.07,110.000000,,2013-04-11 19:42:00,
2013-04-11 11:52:00,22.0,5.0,-100.00,NW,314,4.0,8.0,47,0.01,,,0.07,110.000000,,2013-04-11 19:52:00,
2013-04-11 12:22:00,26.0,7.0,-100.00,NW,326,3.0,11.0,43,0.00,,,0.06,142.000000,,2013-04-11 20:22:00,
2013-04-11 12:33:00,26.0,7.0,-100.00,NW,326,3.0,11.0,43,0.00,,,0.06,142.000000,,2013-04-11 20:33:00,
2013-04-11 12:52:00,26.0,7.0,-100.00,NW,326,3.0,11.0,43,0.00,,,0.06,142.000000,,2013-04-11 20:52:00,
2013-04-11 13:22:00,25.0,9.0,-100.00,NW,305,5.0,12.0,49,0.02,,,0.07,150.000000,,2013-04-11 21:22:00,
2013-04-11 13:33:00,25.0,9.0,-100.00,NW,305,5.0,12.0,49,0.02,,,0.07,150.000000,,2013-04-11 21:33:00,
2013-04-11 13:42:00,25.0,9.0,-100.00,NW,305,5.0,12.0,49,0.02,,,0.07,150.000000,,2013-04-11 21:42:00,
2013-04-11 13:53:00,25.0,9.0,-100.00,NW,305,5.0,12.0,49,0.02,,,0.07,150.000000,,2013-04-11 21:53:00,
2013-04-11 14:23:00,26.0,4.0,-100.00,NW,319,5.0,10.0,38,0.01,,,-99.99,244.000000,,2013-04-11 22:23:00,
2013-04-11 14:32:00,26.0,4.0,-100.00,NW,319,5.0,10.0,38,0.01,,,-99.99,244.000000,,2013-04-11 22:32:00,
2013-04-11 14:43:00,26.0,4.0,-100.00,NW,319,5.0,10.0,38,0.01,,,-99.99,244.000000,,2013-04-11 22:43:00,
2013-04-11 14:52:00,26.0,4.0,-100.00,NW,319,5.0,10.0,38,0.01,,,-99.99,244.000000,,2013-04-11 22:52:00,
2013-04-11 15:22:00,28.0,5.0,-100.00,North,3,5.0,11.0,37,0.00,,,0.06,286.000000,,2013-04-11 23:22:00,
2013-04-11 15:32:00,28.0,5.0,-100.00,North,3,5.0,11.0,37,0.00,,,0.06,286.000000,,2013-04-11 23:32:00,
2013-04-11 15:42:00,28.0,5.0,-100.00,North,3,5.0,11.0,37,0.00,,,0.06,286.000000,,2013-04-11 23:42:00,
2013-04-11 15:52:00,28.0,5.0,-100.00,North,3,5.0,11.0,37,0.00,,,0.06,286.000000,,2013-04-11 23:52:00,
2013-04-11 16:22:00,29.0,4.0,-100.00,NNW,341,5.0,13.0,33,0.00,,,0.05,315.000000,,2013-04-12 00:22:00,
2013-04-11 16:32:00,29.0,4.0,-100.00,NNW,341,5.0,13.0,33,0.00,,,0.05,315.000000,,2013-04-12 00:32:00,
2013-04-11 16:42:00,29.0,4.0,-100.00,NNW,341,5.0,13.0,33,0.00,,,0.05,315.000000,,2013-04-12 00:42:00,
2013-04-11 16:52:00,29.0,4.0,-100.00,NNW,341,5.0,13.0,33,0.00,,,0.05,315.000000,,2013-04-12 00:52:00,
2013-04-11 17:00:00,31.0,6.0,-100.00,NNE,12,3.0,12.0,34,-99.99,,,-99.99,,,2013-04-12 01:00:00,
2013-04-11 17:22:00,31.0,6.0,-100.00,NNE,12,3.0,12.0,34,0.00,,,0.05,356.000000,,2013-04-12 01:22:00,
2013-04-11 17:42:00,31.0,6.0,-100.00,NNE,12,3.0,12.0,34,0.00,,,0.05,356.000000,,2013-04-12 01:42:00,
2013-04-11 17:52:00,31.0,6.0,-100.00,NNE,12,3.0,12.0,34,0.00,,,0.05,356.000000,,2013-04-12 01:52:00,
2013-04-11 18:22:00,31.0,5.0,-100.00,North,3,4.0,10.0,32,0.00,,,0.04,351.000000,,2013-04-12 02:22:00,
2013-04-11 18:32:00,31.0,5.0,-100.00,North,3,4.0,10.0,32,0.00,,,0.04,351.000000,,2013-04-12 02:32:00,
2013-04-11 18:42:00,31.0,5.0,-100.00,North,3,4.0,10.0,32,0.00,,,0.04,351.000000,,2013-04-12 02:42:00,
2013-04-11 18:52:00,31.0,5.0,-100.00,North,3,4.0,10.0,32,0.00,,,0.04,351.000000,,2013-04-12 02:52:00,
2013-04-11 19:01:00,30.0,4.0,-100.00,NNE,12,3.0,10.0,33,-99.99,,,-99.99,,,2013-04-12 03:01:00,
2013-04-11 19:22:00,30.0,4.0,-100.00,NNE,12,3.0,10.0,33,0.00,,,0.04,290.000000,,2013-04-12 03:22:00,
2013-04-11 19:33:00,30.0,4.0,-100.00,NNE,12,3.0,10.0,33,0.00,,,0.04,290.000000,,2013-04-12 03:33:00,
2013-04-11 19:43:00,30.0,4.0,-100.00,NNE,12,3.0,10.0,33,0.00,,,0.04,290.000000,,2013-04-12 03:43:00,
2013-04-11 19:52:00,30.0,4.0,-100.00,NNE,12,3.0,10.0,33,0.00,,,0.04,290.000000,,2013-04-12 03:52:00,
2013-04-11 20:22:00,26.0,2.0,-100.00,NW,321,4.0,9.0,34,0.00,,,0.04,160.000000,,2013-04-12 04:22:00,
2013-04-11 20:33:00,26.0,2.0,-100.00,NW,321,4.0,9.0,34,0.00,,,0.04,160.000000,,2013-04-12 04:33:00,
2013-04-11 20:43:00,26.0,2.0,-100.00,NW,321,4.0,9.0,34,0.00,,,0.04,160.000000,,2013-04-12 04:43:00,
2013-04-11 20:52:00,26.0,2.0,-100.00,NW,321,4.0,9.0,34,0.00,,,0.04,160.000000,,2013-04-12 04:52:00,
2013-04-11 21:22:00,22.0,-1.0,-100.00,North,358,3.0,8.0,36,0.00,,,0.04,27.000000,,2013-04-12 05:22:00,
2013-04-11 21:32:00,22.0,-1.0,-100.00,North,358,3.0,8.0,36,0.00,,,0.04,27.000000,,2013-04-12 05:32:00,
2013-04-11 21:42:00,22.0,-1.0,-100.00,North,358,3.0,8.0,36,0.00,,,0.04,27.000000,,2013-04-12 05:42:00,
2013-04-11 21:52:00,22.0,-1.0,-100.00,North,358,3.0,8.0,36,0.00,,,0.04,27.000000,,2013-04-12 05:52:00,
2013-04-11 23:22:00,9.0,-2.0,-100.00,NE,54,1.0,4.0,61,0.00,,,0.04,0.000000,,2013-04-12 07:22:00,
2013-04-11 23:32:00,9.0,-2.0,-100.00,NE,54,1.0,4.0,61,0.00,,,0.04,0.000000,,2013-04-12 07:32:00,